Year,Month,Day,Hour,Minute,Value (Times are PST for temperature in C)
2015,07,19,00,00,23.30
2015,07,19,00,01,23.30
2015,07,19,00,02,23.30
2015,07,19,00,03,23.20
2015,07,19,00,04,23.20
2015,07,19,00,05,23.20
2015,07,19,00,06,23.20
2015,07,19,00,07,23.10
2015,07,19,00,08,23.10
2015,07,19,00,09,23.00
2015,07,19,00,10,22.90
2015,07,19,00,11,22.90
2015,07,19,00,12,22.90
2015,07,19,00,13,22.90
2015,07,19,00,14,22.90
2015,07,19,00,15,22.90
2015,07,19,00,16,22.80
2015,07,19,00,17,22.80
2015,07,19,00,18,22.80
2015,07,19,00,19,22.80
2015,07,19,00,20,22.70
2015,07,19,00,21,22.70
2015,07,19,00,22,22.70
2015,07,19,00,23,22.70
2015,07,19,00,24,22.70
2015,07,19,00,25,22.70
2015,07,19,00,26,22.70
2015,07,19,00,27,22.70
2015,07,19,00,28,22.70
2015,07,19,00,29,22.70
2015,07,19,00,30,22.70
2015,07,19,00,31,22.70
2015,07,19,00,32,22.60
2015,07,19,00,33,22.60
2015,07,19,00,34,22.50
2015,07,19,00,35,22.50
2015,07,19,00,36,22.40
2015,07,19,00,37,22.30
2015,07,19,00,38,22.30
2015,07,19,00,39,22.30
2015,07,19,00,40,22.30
2015,07,19,00,41,22.20
2015,07,19,00,42,22.20
2015,07,19,00,43,22.20
2015,07,19,00,44,22.20
2015,07,19,00,45,22.10
2015,07,19,00,46,22.10
2015,07,19,00,47,22.10
2015,07,19,00,48,22.10
2015,07,19,00,49,22.00
2015,07,19,00,50,22.00
2015,07,19,00,51,22.00
2015,07,19,00,52,22.00
2015,07,19,00,53,22.00
2015,07,19,00,54,21.90
2015,07,19,00,55,21.90
2015,07,19,00,56,21.90
2015,07,19,00,57,21.90
2015,07,19,00,58,21.90
2015,07,19,00,59,21.90
2015,07,19,01,00,21.90
2015,07,19,01,01,21.90
2015,07,19,01,02,21.90
2015,07,19,01,03,21.90
2015,07,19,01,04,21.90
2015,07,19,01,05,21.90
2015,07,19,01,06,21.90
2015,07,19,01,07,21.90
2015,07,19,01,08,21.90
2015,07,19,01,09,21.90
2015,07,19,01,10,21.90
2015,07,19,01,11,21.90
2015,07,19,01,12,21.90
2015,07,19,01,13,21.90
2015,07,19,01,14,21.90
2015,07,19,01,15,21.80
2015,07,19,01,16,21.80
2015,07,19,01,17,21.80
2015,07,19,01,18,21.70
2015,07,19,01,19,21.70
2015,07,19,01,20,21.60
2015,07,19,01,21,21.60
2015,07,19,01,22,21.40
2015,07,19,01,23,21.30
2015,07,19,01,24,21.30
2015,07,19,01,25,21.20
2015,07,19,01,26,21.10
2015,07,19,01,27,21.10
2015,07,19,01,28,21.00
2015,07,19,01,29,21.00
2015,07,19,01,30,20.90
2015,07,19,01,31,20.90
2015,07,19,01,32,20.80
2015,07,19,01,33,20.80
2015,07,19,01,34,20.70
2015,07,19,01,35,20.70
2015,07,19,01,36,20.60
2015,07,19,01,37,20.60
2015,07,19,01,38,20.60
2015,07,19,01,39,20.50
2015,07,19,01,40,20.50
2015,07,19,01,41,20.50
2015,07,19,01,42,20.50
2015,07,19,01,43,20.50
2015,07,19,01,44,20.50
2015,07,19,01,45,20.50
2015,07,19,01,46,20.50
2015,07,19,01,47,20.60
2015,07,19,01,48,20.60
2015,07,19,01,49,20.60
2015,07,19,01,50,20.60
2015,07,19,01,51,20.60
2015,07,19,01,52,20.70
2015,07,19,01,53,20.60
2015,07,19,01,54,20.60
2015,07,19,01,55,20.60
2015,07,19,01,56,20.60
2015,07,19,01,57,20.60
2015,07,19,01,58,20.50
2015,07,19,01,59,20.50
2015,07,19,02,00,20.50
2015,07,19,02,01,20.40
2015,07,19,02,02,20.40
2015,07,19,02,03,20.40
2015,07,19,02,04,20.40
2015,07,19,02,05,20.30
2015,07,19,02,06,20.20
2015,07,19,02,07,20.20
2015,07,19,02,08,20.20
2015,07,19,02,09,20.20
2015,07,19,02,10,20.10
2015,07,19,02,11,20.10
2015,07,19,02,12,20.00
2015,07,19,02,13,19.90
2015,07,19,02,14,19.90
2015,07,19,02,15,19.80
2015,07,19,02,16,19.80
2015,07,19,02,17,19.80
2015,07,19,02,18,19.70
2015,07,19,02,19,19.70
2015,07,19,02,20,19.70
2015,07,19,02,21,19.70
2015,07,19,02,22,19.70
2015,07,19,02,23,19.70
2015,07,19,02,24,19.70
2015,07,19,02,25,19.70
2015,07,19,02,26,19.70
2015,07,19,02,27,19.70
2015,07,19,02,28,19.70
2015,07,19,02,29,19.70
2015,07,19,02,30,19.70
2015,07,19,02,31,19.70
2015,07,19,02,32,19.70
2015,07,19,02,33,19.70
2015,07,19,02,34,19.80
2015,07,19,02,35,19.80
2015,07,19,02,36,19.80
2015,07,19,02,37,19.80
2015,07,19,02,38,19.80
2015,07,19,02,39,19.80
2015,07,19,02,40,19.80
2015,07,19,02,41,19.80
2015,07,19,02,42,19.80
2015,07,19,02,43,19.80
2015,07,19,02,44,19.80
2015,07,19,02,45,19.80
2015,07,19,02,46,19.90
2015,07,19,02,47,19.90
2015,07,19,02,48,19.90
2015,07,19,02,49,19.90
2015,07,19,02,50,19.90
2015,07,19,02,51,19.90
2015,07,19,02,52,20.00
2015,07,19,02,53,20.10
2015,07,19,02,54,20.10
2015,07,19,02,55,20.10
2015,07,19,02,56,20.20
2015,07,19,02,57,20.20
2015,07,19,02,58,20.20
2015,07,19,02,59,20.20
2015,07,19,03,00,20.20
2015,07,19,03,01,20.30
2015,07,19,03,02,20.30
2015,07,19,03,03,20.40
2015,07,19,03,04,20.50
2015,07,19,03,05,20.50
2015,07,19,03,06,20.60
2015,07,19,03,07,20.60
2015,07,19,03,08,20.60
2015,07,19,03,09,20.70
2015,07,19,03,10,20.70
2015,07,19,03,11,20.70
2015,07,19,03,12,20.70
2015,07,19,03,13,20.70
2015,07,19,03,14,20.70
2015,07,19,03,15,20.80
2015,07,19,03,16,20.80
2015,07,19,03,17,20.80
2015,07,19,03,18,20.80
2015,07,19,03,19,20.80
2015,07,19,03,20,20.80
2015,07,19,03,21,20.80
2015,07,19,03,22,20.80
2015,07,19,03,23,20.70
2015,07,19,03,24,20.40
2015,07,19,03,25,20.20
2015,07,19,03,26,19.90
2015,07,19,03,27,19.70
2015,07,19,03,28,19.60
2015,07,19,03,29,19.40
2015,07,19,03,30,19.20
2015,07,19,03,31,19.10
2015,07,19,03,32,18.90
2015,07,19,03,33,18.80
2015,07,19,03,34,18.70
2015,07,19,03,35,18.60
2015,07,19,03,36,18.50
2015,07,19,03,37,18.50
2015,07,19,03,38,18.40
2015,07,19,03,39,18.40
2015,07,19,03,40,18.30
2015,07,19,03,41,18.20
2015,07,19,03,42,18.20
2015,07,19,03,43,18.10
2015,07,19,03,44,18.00
2015,07,19,03,45,17.90
2015,07,19,03,46,17.80
2015,07,19,03,47,17.70
2015,07,19,03,48,17.50
2015,07,19,03,49,17.50
2015,07,19,03,50,17.40
2015,07,19,03,51,17.30
2015,07,19,03,52,17.20
2015,07,19,03,53,17.20
2015,07,19,03,54,17.10
2015,07,19,03,55,17.10
2015,07,19,03,56,17.00
2015,07,19,03,57,17.00
2015,07,19,03,58,17.00
2015,07,19,03,59,16.90
2015,07,19,04,00,16.90
2015,07,19,04,01,16.90
2015,07,19,04,02,16.90
2015,07,19,04,03,16.90
2015,07,19,04,04,16.90
2015,07,19,04,05,16.90
2015,07,19,04,06,16.90
2015,07,19,04,07,16.90
2015,07,19,04,08,17.00
2015,07,19,04,09,17.00
2015,07,19,04,10,17.00
2015,07,19,04,11,17.10
2015,07,19,04,12,17.10
2015,07,19,04,13,17.20
2015,07,19,04,14,17.20
2015,07,19,04,15,17.20
2015,07,19,04,16,17.30
2015,07,19,04,17,17.30
2015,07,19,04,18,17.30
2015,07,19,04,19,17.30
2015,07,19,04,20,17.40
2015,07,19,04,21,17.40
2015,07,19,04,22,17.40
2015,07,19,04,23,17.40
2015,07,19,04,24,17.50
2015,07,19,04,25,17.50
2015,07,19,04,26,17.50
2015,07,19,04,27,17.50
2015,07,19,04,28,17.50
2015,07,19,04,29,17.50
2015,07,19,04,30,17.50
2015,07,19,04,31,17.50
2015,07,19,04,32,17.50
2015,07,19,04,33,17.50
2015,07,19,04,34,17.50
2015,07,19,04,35,17.50
2015,07,19,04,36,17.60
2015,07,19,04,37,17.60
2015,07,19,04,38,17.60
2015,07,19,04,39,17.70
2015,07,19,04,40,17.70
2015,07,19,04,41,17.70
2015,07,19,04,42,17.70
2015,07,19,04,43,17.70
2015,07,19,04,44,17.70
2015,07,19,04,45,17.70
2015,07,19,04,46,17.70
2015,07,19,04,47,17.70
2015,07,19,04,48,17.70
2015,07,19,04,49,17.80
2015,07,19,04,50,17.80
2015,07,19,04,51,17.80
2015,07,19,04,52,17.80
2015,07,19,04,53,17.80
2015,07,19,04,54,17.80
2015,07,19,04,55,17.90
2015,07,19,04,56,17.90
2015,07,19,04,57,17.90
2015,07,19,04,58,17.90
2015,07,19,04,59,17.90
2015,07,19,05,00,17.90
2015,07,19,05,01,17.90
2015,07,19,05,02,18.00
2015,07,19,05,03,18.10
2015,07,19,05,04,18.10
2015,07,19,05,05,18.10
2015,07,19,05,06,18.20
2015,07,19,05,07,18.20
2015,07,19,05,08,18.20
2015,07,19,05,09,18.20
2015,07,19,05,10,18.30
2015,07,19,05,11,18.30
2015,07,19,05,12,18.40
2015,07,19,05,13,18.50
2015,07,19,05,14,18.50
2015,07,19,05,15,18.60
2015,07,19,05,16,18.60
2015,07,19,05,17,18.70
2015,07,19,05,18,18.70
2015,07,19,05,19,18.70
2015,07,19,05,20,18.80
2015,07,19,05,21,18.80
2015,07,19,05,22,18.90
2015,07,19,05,23,18.90
2015,07,19,05,24,18.90
2015,07,19,05,25,18.90
2015,07,19,05,26,18.90
2015,07,19,05,27,19.00
2015,07,19,05,28,19.10
2015,07,19,05,29,19.10
2015,07,19,05,30,19.10
2015,07,19,05,31,19.10
2015,07,19,05,32,19.20
2015,07,19,05,33,19.20
2015,07,19,05,34,19.30
2015,07,19,05,35,19.40
2015,07,19,05,36,19.40
2015,07,19,05,37,19.50
2015,07,19,05,38,19.50
2015,07,19,05,39,19.50
2015,07,19,05,40,19.60
2015,07,19,05,41,19.60
2015,07,19,05,42,19.70
2015,07,19,05,43,19.70
2015,07,19,05,44,19.80
2015,07,19,05,45,19.80
2015,07,19,05,46,19.90
2015,07,19,05,47,19.90
2015,07,19,05,48,19.90
2015,07,19,05,49,19.90
2015,07,19,05,50,19.90
2015,07,19,05,51,19.90
2015,07,19,05,52,19.90
2015,07,19,05,53,19.90
2015,07,19,05,54,19.90
2015,07,19,05,55,19.90
2015,07,19,05,56,19.90
2015,07,19,05,57,19.90
2015,07,19,05,58,19.90
2015,07,19,05,59,19.80
2015,07,19,06,00,19.80
2015,07,19,06,01,19.80
2015,07,19,06,02,19.80
2015,07,19,06,03,19.80
2015,07,19,06,04,19.80
2015,07,19,06,05,19.80
2015,07,19,06,06,19.70
2015,07,19,06,07,19.70
2015,07,19,06,08,19.80
2015,07,19,06,09,19.80
2015,07,19,06,10,19.80
2015,07,19,06,11,19.80
2015,07,19,06,12,19.90
2015,07,19,06,13,19.90
2015,07,19,06,14,19.90
2015,07,19,06,15,19.90
2015,07,19,06,16,19.90
2015,07,19,06,17,19.90
2015,07,19,06,18,19.90
2015,07,19,06,19,19.90
2015,07,19,06,20,19.90
2015,07,19,06,21,19.90
2015,07,19,06,22,19.90
2015,07,19,06,23,19.90
2015,07,19,06,24,19.90
2015,07,19,06,25,19.90
2015,07,19,06,26,19.90
2015,07,19,06,27,19.90
2015,07,19,06,28,19.90
2015,07,19,06,29,19.90
2015,07,19,06,30,20.10
2015,07,19,06,31,20.10
2015,07,19,06,32,20.10
2015,07,19,06,33,20.10
2015,07,19,06,34,20.20
2015,07,19,06,35,20.20
2015,07,19,06,36,20.20
2015,07,19,06,37,20.20
2015,07,19,06,38,20.20
2015,07,19,06,39,20.20
2015,07,19,06,40,20.20
2015,07,19,06,41,20.20
2015,07,19,06,42,20.20
2015,07,19,06,43,20.20
2015,07,19,06,44,20.20
2015,07,19,06,45,20.20
2015,07,19,06,46,20.20
2015,07,19,06,47,20.20
2015,07,19,06,48,20.20
2015,07,19,06,49,20.20
2015,07,19,06,50,20.20
2015,07,19,06,51,20.20
2015,07,19,06,52,20.20
2015,07,19,06,53,20.20
2015,07,19,06,54,20.20
2015,07,19,06,55,20.20
2015,07,19,06,56,20.20
2015,07,19,06,57,20.20
2015,07,19,06,58,20.20
2015,07,19,06,59,20.20
2015,07,19,07,00,20.20
2015,07,19,07,01,20.20
2015,07,19,07,02,20.30
2015,07,19,07,03,20.20
2015,07,19,07,04,20.20
2015,07,19,07,05,20.20
2015,07,19,07,06,20.10
2015,07,19,07,07,20.00
2015,07,19,07,08,19.80
2015,07,19,07,09,19.60
2015,07,19,07,10,19.50
2015,07,19,07,11,19.40
2015,07,19,07,12,19.40
2015,07,19,07,13,19.30
2015,07,19,07,14,19.20
2015,07,19,07,15,19.10
2015,07,19,07,16,19.10
2015,07,19,07,17,19.10
2015,07,19,07,18,19.10
2015,07,19,07,19,19.10
2015,07,19,07,20,19.10
2015,07,19,07,21,19.10
2015,07,19,07,22,19.10
2015,07,19,07,23,18.90
2015,07,19,07,24,19.00
2015,07,19,07,25,19.10
2015,07,19,07,26,19.00
2015,07,19,07,27,18.90
2015,07,19,07,28,19.00
2015,07,19,07,29,19.10
2015,07,19,07,30,19.10
2015,07,19,07,31,19.00
2015,07,19,07,32,18.90
2015,07,19,07,33,18.90
2015,07,19,07,34,18.90
2015,07,19,07,35,18.90
2015,07,19,07,36,18.90
2015,07,19,07,37,19.00
2015,07,19,07,38,19.10
2015,07,19,07,39,19.10
2015,07,19,07,40,19.20
2015,07,19,07,41,19.20
2015,07,19,07,42,19.30
2015,07,19,07,43,19.30
2015,07,19,07,44,19.30
2015,07,19,07,45,19.40
2015,07,19,07,46,19.40
2015,07,19,07,47,19.50
2015,07,19,07,48,19.70
2015,07,19,07,49,19.80
2015,07,19,07,50,19.90
2015,07,19,07,51,19.90
2015,07,19,07,52,19.90
2015,07,19,07,53,20.00
2015,07,19,07,54,20.10
2015,07,19,07,55,20.10
2015,07,19,07,56,20.10
2015,07,19,07,57,20.10
2015,07,19,07,58,20.10
2015,07,19,07,59,20.10
2015,07,19,08,00,20.10
2015,07,19,08,01,20.20
2015,07,19,08,02,20.20
2015,07,19,08,03,20.20
2015,07,19,08,04,20.20
2015,07,19,08,05,20.30
2015,07,19,08,06,20.30
2015,07,19,08,07,20.40
2015,07,19,08,08,20.50
2015,07,19,08,09,20.60
2015,07,19,08,10,20.60
2015,07,19,08,11,20.70
2015,07,19,08,12,20.70
2015,07,19,08,13,20.80
2015,07,19,08,14,20.80
2015,07,19,08,15,20.80
2015,07,19,08,16,20.90
2015,07,19,08,17,20.90
2015,07,19,08,18,20.90
2015,07,19,08,19,21.00
2015,07,19,08,20,21.00
2015,07,19,08,21,21.10
2015,07,19,08,22,21.10
2015,07,19,08,23,21.20
2015,07,19,08,24,21.20
2015,07,19,08,25,21.30
2015,07,19,08,26,21.30
2015,07,19,08,27,21.40
2015,07,19,08,28,21.40
2015,07,19,08,29,21.30
2015,07,19,08,30,21.30
2015,07,19,08,31,21.30
2015,07,19,08,32,21.30
2015,07,19,08,33,21.30
2015,07,19,08,34,21.30
2015,07,19,08,35,21.30
2015,07,19,08,36,21.40
2015,07,19,08,37,21.50
2015,07,19,08,38,21.60
2015,07,19,08,39,21.60
2015,07,19,08,40,21.50
2015,07,19,08,41,21.50
2015,07,19,08,42,21.60
2015,07,19,08,43,21.60
2015,07,19,08,44,21.60
2015,07,19,08,45,21.60
2015,07,19,08,46,21.60
2015,07,19,08,47,21.60
2015,07,19,08,48,21.60
2015,07,19,08,49,21.60
2015,07,19,08,50,21.60
2015,07,19,08,51,21.70
2015,07,19,08,52,21.80
2015,07,19,08,53,21.90
2015,07,19,08,54,21.90
2015,07,19,08,55,21.90
2015,07,19,08,56,22.00
2015,07,19,08,57,22.00
2015,07,19,08,58,22.10
2015,07,19,08,59,22.10
2015,07,19,09,00,22.20
2015,07,19,09,01,22.30
2015,07,19,09,02,22.40
2015,07,19,09,03,22.60
2015,07,19,09,04,22.70
2015,07,19,09,05,22.80
2015,07,19,09,06,22.90
2015,07,19,09,07,22.90
2015,07,19,09,08,22.90
2015,07,19,09,09,23.00
2015,07,19,09,10,23.20
2015,07,19,09,11,23.20
2015,07,19,09,12,23.30
2015,07,19,09,13,23.30
2015,07,19,09,14,23.30
2015,07,19,09,15,23.30
2015,07,19,09,16,23.30
2015,07,19,09,17,23.20
2015,07,19,09,18,23.20
2015,07,19,09,19,23.10
2015,07,19,09,20,23.10
2015,07,19,09,21,23.10
2015,07,19,09,22,23.20
2015,07,19,09,23,23.30
2015,07,19,09,24,23.30
2015,07,19,09,25,23.30
2015,07,19,09,26,23.30
2015,07,19,09,27,23.40
2015,07,19,09,28,23.50
2015,07,19,09,29,23.60
2015,07,19,09,30,23.60
2015,07,19,09,31,23.60
2015,07,19,09,32,23.40
2015,07,19,09,33,23.30
2015,07,19,09,34,23.40
2015,07,19,09,35,23.40
2015,07,19,09,36,23.40
2015,07,19,09,37,23.40
2015,07,19,09,38,23.40
2015,07,19,09,39,23.50
2015,07,19,09,40,23.60
2015,07,19,09,41,23.60
2015,07,19,09,42,23.60
2015,07,19,09,43,23.60
2015,07,19,09,44,23.50
2015,07,19,09,45,23.40
2015,07,19,09,46,23.40
2015,07,19,09,47,23.40
2015,07,19,09,48,23.40
2015,07,19,09,49,23.50
2015,07,19,09,50,23.60
2015,07,19,09,51,23.70
2015,07,19,09,52,23.70
2015,07,19,09,53,23.70
2015,07,19,09,54,23.80
2015,07,19,09,55,23.80
2015,07,19,09,56,23.90
2015,07,19,09,57,23.90
2015,07,19,09,58,24.00
2015,07,19,09,59,24.10
2015,07,19,10,00,24.10
2015,07,19,10,01,24.10
2015,07,19,10,02,24.10
2015,07,19,10,03,24.10
2015,07,19,10,04,24.10
2015,07,19,10,05,24.10
2015,07,19,10,06,24.10
2015,07,19,10,07,24.10
2015,07,19,10,08,23.90
2015,07,19,10,09,23.80
2015,07,19,10,10,23.70
2015,07,19,10,11,23.60
2015,07,19,10,12,23.60
2015,07,19,10,13,23.60
2015,07,19,10,14,23.70
2015,07,19,10,15,23.70
2015,07,19,10,16,23.70
2015,07,19,10,17,23.70
2015,07,19,10,18,23.90
2015,07,19,10,19,24.00
2015,07,19,10,20,24.10
2015,07,19,10,21,24.10
2015,07,19,10,22,24.10
2015,07,19,10,23,24.20
2015,07,19,10,24,24.30
2015,07,19,10,25,24.40
2015,07,19,10,26,24.50
2015,07,19,10,27,24.60
2015,07,19,10,28,24.70
2015,07,19,10,29,24.70
2015,07,19,10,30,24.50
2015,07,19,10,31,24.30
2015,07,19,10,32,24.10
2015,07,19,10,33,23.90
2015,07,19,10,34,23.70
2015,07,19,10,35,23.70
2015,07,19,10,36,23.50
2015,07,19,10,37,23.30
2015,07,19,10,38,23.20
2015,07,19,10,39,23.10
2015,07,19,10,40,23.10
2015,07,19,10,41,23.20
2015,07,19,10,42,23.30
2015,07,19,10,43,23.30
2015,07,19,10,44,23.50
2015,07,19,10,45,23.60
2015,07,19,10,46,23.70
2015,07,19,10,47,23.80
2015,07,19,10,48,23.80
2015,07,19,10,49,23.90
2015,07,19,10,50,23.90
2015,07,19,10,51,23.90
2015,07,19,10,52,23.90
2015,07,19,10,53,23.80
2015,07,19,10,54,23.80
2015,07,19,10,55,23.80
2015,07,19,10,56,23.80
2015,07,19,10,57,23.80
2015,07,19,10,58,23.80
2015,07,19,10,59,23.80
2015,07,19,11,00,23.90
2015,07,19,11,01,23.90
2015,07,19,11,02,23.90
2015,07,19,11,03,23.90
2015,07,19,11,04,23.90
2015,07,19,11,05,24.00
2015,07,19,11,06,24.10
2015,07,19,11,07,24.20
2015,07,19,11,08,24.30
2015,07,19,11,09,24.30
2015,07,19,11,10,24.30
2015,07,19,11,11,24.30
2015,07,19,11,12,24.30
2015,07,19,11,13,24.30
2015,07,19,11,14,24.30
2015,07,19,11,15,24.20
2015,07,19,11,16,24.10
2015,07,19,11,17,24.00
2015,07,19,11,18,23.90
2015,07,19,11,19,23.90
2015,07,19,11,20,23.90
2015,07,19,11,21,24.10
2015,07,19,11,22,24.10
2015,07,19,11,23,24.20
2015,07,19,11,24,24.30
2015,07,19,11,25,24.40
2015,07,19,11,26,24.50
2015,07,19,11,27,24.50
2015,07,19,11,28,24.60
2015,07,19,11,29,24.60
2015,07,19,11,30,24.70
2015,07,19,11,31,24.80
2015,07,19,11,32,24.80
2015,07,19,11,33,24.80
2015,07,19,11,34,24.90
2015,07,19,11,35,24.90
2015,07,19,11,36,25.10
2015,07,19,11,37,25.20
2015,07,19,11,38,25.30
2015,07,19,11,39,25.30
2015,07,19,11,40,25.30
2015,07,19,11,41,25.10
2015,07,19,11,42,24.90
2015,07,19,11,43,24.70
2015,07,19,11,44,24.50
2015,07,19,11,45,24.40
2015,07,19,11,46,24.30
2015,07,19,11,47,24.20
2015,07,19,11,48,24.10
2015,07,19,11,49,24.10
2015,07,19,11,50,24.10
2015,07,19,11,51,24.10
2015,07,19,11,52,24.10
2015,07,19,11,53,24.10
2015,07,19,11,54,24.10
2015,07,19,11,55,24.10
2015,07,19,11,56,24.10
2015,07,19,11,57,24.10
2015,07,19,11,58,24.10
2015,07,19,11,59,24.20
2015,07,19,12,00,24.30
2015,07,19,12,01,24.40
2015,07,19,12,02,24.40
2015,07,19,12,03,24.50
2015,07,19,12,04,24.40
2015,07,19,12,05,24.50
2015,07,19,12,06,24.50
2015,07,19,12,07,24.60
2015,07,19,12,08,24.70
2015,07,19,12,09,24.90
2015,07,19,12,10,24.90
2015,07,19,12,11,25.00
2015,07,19,12,12,25.10
2015,07,19,12,13,25.10
2015,07,19,12,14,25.10
2015,07,19,12,15,25.00
2015,07,19,12,16,25.00
2015,07,19,12,17,25.10
2015,07,19,12,18,25.10
2015,07,19,12,19,25.10
2015,07,19,12,20,25.00
2015,07,19,12,21,25.00
2015,07,19,12,22,24.90
2015,07,19,12,23,25.00
2015,07,19,12,24,25.00
2015,07,19,12,25,25.00
2015,07,19,12,26,25.10
2015,07,19,12,27,25.10
2015,07,19,12,28,25.10
2015,07,19,12,29,25.10
2015,07,19,12,30,25.10
2015,07,19,12,31,25.20
2015,07,19,12,32,25.20
2015,07,19,12,33,25.20
2015,07,19,12,34,25.20
2015,07,19,12,35,25.20
2015,07,19,12,36,25.20
2015,07,19,12,37,25.10
2015,07,19,12,38,25.00
2015,07,19,12,39,25.10
2015,07,19,12,40,25.20
2015,07,19,12,41,25.30
2015,07,19,12,42,25.30
2015,07,19,12,43,25.30
2015,07,19,12,44,25.30
2015,07,19,12,45,25.30
2015,07,19,12,46,25.30
2015,07,19,12,47,25.30
2015,07,19,12,48,25.40
2015,07,19,12,49,25.50
2015,07,19,12,50,25.60
2015,07,19,12,51,25.70
2015,07,19,12,52,25.80
2015,07,19,12,53,25.90
2015,07,19,12,54,25.90
2015,07,19,12,55,26.00
2015,07,19,12,56,26.10
2015,07,19,12,57,26.20
2015,07,19,12,58,26.20
2015,07,19,12,59,26.10
2015,07,19,13,00,26.10
2015,07,19,13,01,26.00
2015,07,19,13,02,25.90
2015,07,19,13,03,25.90
2015,07,19,13,04,25.90
2015,07,19,13,05,26.00
2015,07,19,13,06,26.00
2015,07,19,13,07,25.90
2015,07,19,13,08,25.90
2015,07,19,13,09,25.90
2015,07,19,13,10,26.00
2015,07,19,13,11,26.10
2015,07,19,13,12,26.00
2015,07,19,13,13,25.90
2015,07,19,13,14,25.90
2015,07,19,13,15,25.90
2015,07,19,13,16,25.90
2015,07,19,13,17,26.00
2015,07,19,13,18,26.00
2015,07,19,13,19,26.10
2015,07,19,13,20,26.30
2015,07,19,13,21,26.40
2015,07,19,13,22,26.40
2015,07,19,13,23,26.40
2015,07,19,13,24,26.40
2015,07,19,13,25,26.30
2015,07,19,13,26,26.20
2015,07,19,13,27,26.20
2015,07,19,13,28,26.20
2015,07,19,13,29,26.20
2015,07,19,13,30,26.10
2015,07,19,13,31,26.00
2015,07,19,13,32,26.00
2015,07,19,13,33,26.00
2015,07,19,13,34,25.90
2015,07,19,13,35,25.90
2015,07,19,13,36,25.90
2015,07,19,13,37,25.90
2015,07,19,13,38,26.00
2015,07,19,13,39,26.00
2015,07,19,13,40,26.00
2015,07,19,13,41,26.00
2015,07,19,13,42,26.00
2015,07,19,13,43,26.00
2015,07,19,13,44,26.00
2015,07,19,13,45,25.90
2015,07,19,13,46,25.90
2015,07,19,13,47,26.00
2015,07,19,13,48,26.00
2015,07,19,13,49,26.10
2015,07,19,13,50,26.20
2015,07,19,13,51,26.20
2015,07,19,13,52,26.20
2015,07,19,13,53,26.20
2015,07,19,13,54,26.20
2015,07,19,13,55,26.30
2015,07,19,13,56,26.40
2015,07,19,13,57,26.50
2015,07,19,13,58,26.60
2015,07,19,13,59,26.60
2015,07,19,14,00,26.60
2015,07,19,14,01,26.60
2015,07,19,14,02,26.70
2015,07,19,14,03,26.80
2015,07,19,14,04,26.80
2015,07,19,14,05,26.80
2015,07,19,14,06,26.90
2015,07,19,14,07,26.80
2015,07,19,14,08,26.90
2015,07,19,14,09,26.90
2015,07,19,14,10,26.90
2015,07,19,14,11,27.00
2015,07,19,14,12,27.10
2015,07,19,14,13,27.20
2015,07,19,14,14,27.10
2015,07,19,14,15,27.10
2015,07,19,14,16,27.20
2015,07,19,14,17,27.10
2015,07,19,14,18,27.00
2015,07,19,14,19,26.80
2015,07,19,14,20,26.70
2015,07,19,14,21,26.70
2015,07,19,14,22,26.70
2015,07,19,14,23,26.70
2015,07,19,14,24,26.70
2015,07,19,14,25,26.80
2015,07,19,14,26,26.80
2015,07,19,14,27,26.80
2015,07,19,14,28,26.80
2015,07,19,14,29,26.80
2015,07,19,14,30,26.80
2015,07,19,14,31,26.90
2015,07,19,14,32,26.90
2015,07,19,14,33,27.00
2015,07,19,14,34,26.90
2015,07,19,14,35,26.90
2015,07,19,14,36,26.90
2015,07,19,14,37,26.90
2015,07,19,14,38,26.90
2015,07,19,14,39,26.90
2015,07,19,14,40,26.90
2015,07,19,14,41,27.00
2015,07,19,14,42,27.10
2015,07,19,14,43,27.10
2015,07,19,14,44,27.10
2015,07,19,14,45,27.20
2015,07,19,14,46,27.20
2015,07,19,14,47,27.20
2015,07,19,14,48,27.20
2015,07,19,14,49,27.20
2015,07,19,14,50,27.30
2015,07,19,14,51,27.30
2015,07,19,14,52,27.30
2015,07,19,14,53,27.40
2015,07,19,14,54,27.50
2015,07,19,14,55,27.70
2015,07,19,14,56,27.80
2015,07,19,14,57,27.70
2015,07,19,14,58,27.70
2015,07,19,14,59,27.70
2015,07,19,15,00,27.80
2015,07,19,15,01,27.70
2015,07,19,15,02,27.70
2015,07,19,15,03,27.70
2015,07,19,15,04,27.70
2015,07,19,15,05,27.90
2015,07,19,15,06,27.90
2015,07,19,15,07,27.90
2015,07,19,15,08,27.90
2015,07,19,15,09,27.90
2015,07,19,15,10,27.90
2015,07,19,15,11,28.00
2015,07,19,15,12,28.00
2015,07,19,15,13,28.00
2015,07,19,15,14,28.00
2015,07,19,15,15,28.10
2015,07,19,15,16,28.10
2015,07,19,15,17,28.10
2015,07,19,15,18,28.10
2015,07,19,15,19,28.10
2015,07,19,15,20,28.10
2015,07,19,15,21,28.20
2015,07,19,15,22,28.30
2015,07,19,15,23,28.50
2015,07,19,15,24,28.60
2015,07,19,15,25,28.40
2015,07,19,15,26,28.40
2015,07,19,15,27,28.30
2015,07,19,15,28,28.20
2015,07,19,15,29,28.30
2015,07,19,15,30,28.30
2015,07,19,15,31,28.40
2015,07,19,15,32,28.40
2015,07,19,15,33,28.40
2015,07,19,15,34,28.60
2015,07,19,15,35,28.70
2015,07,19,15,36,28.70
2015,07,19,15,37,28.70
2015,07,19,15,38,28.80
2015,07,19,15,39,28.70
2015,07,19,15,40,28.70
2015,07,19,15,41,28.60
2015,07,19,15,42,28.50
2015,07,19,15,43,28.40
2015,07,19,15,44,28.30
2015,07,19,15,45,28.20
2015,07,19,15,46,28.20
2015,07,19,15,47,28.00
2015,07,19,15,48,27.90
2015,07,19,15,49,27.80
2015,07,19,15,50,27.70
2015,07,19,15,51,27.70
2015,07,19,15,52,27.70
2015,07,19,15,53,27.70
2015,07,19,15,54,27.80
2015,07,19,15,55,27.80
2015,07,19,15,56,27.90
2015,07,19,15,57,28.00
2015,07,19,15,58,28.10
2015,07,19,15,59,28.30
2015,07,19,16,00,28.40
2015,07,19,16,01,28.40
2015,07,19,16,02,28.40
2015,07,19,16,03,28.40
2015,07,19,16,04,28.50
2015,07,19,16,05,28.60
2015,07,19,16,06,28.70
2015,07,19,16,07,28.90
2015,07,19,16,08,29.00
2015,07,19,16,09,29.10
2015,07,19,16,10,29.20
2015,07,19,16,11,29.30
2015,07,19,16,12,29.30
2015,07,19,16,13,29.30
2015,07,19,16,14,29.20
2015,07,19,16,15,29.10
2015,07,19,16,16,29.10
2015,07,19,16,17,29.10
2015,07,19,16,18,29.10
2015,07,19,16,19,29.10
2015,07,19,16,20,29.20
2015,07,19,16,21,29.20
2015,07,19,16,22,29.20
2015,07,19,16,23,29.30
2015,07,19,16,24,29.40
2015,07,19,16,25,29.40
2015,07,19,16,26,29.50
2015,07,19,16,27,29.40
2015,07,19,16,28,29.50
2015,07,19,16,29,29.50
2015,07,19,16,30,29.40
2015,07,19,16,31,29.40
2015,07,19,16,32,29.30
2015,07,19,16,33,29.30
2015,07,19,16,34,29.40
2015,07,19,16,35,29.40
2015,07,19,16,36,29.50
2015,07,19,16,37,29.60
2015,07,19,16,38,29.60
2015,07,19,16,39,29.60
2015,07,19,16,40,29.70
2015,07,19,16,41,29.70
2015,07,19,16,42,29.60
2015,07,19,16,43,29.60
2015,07,19,16,44,29.50
2015,07,19,16,45,29.50
2015,07,19,16,46,29.60
2015,07,19,16,47,29.60
2015,07,19,16,48,29.60
2015,07,19,16,49,29.60
2015,07,19,16,50,29.60
2015,07,19,16,51,29.60
2015,07,19,16,52,29.50
2015,07,19,16,53,29.40
2015,07,19,16,54,29.40
2015,07,19,16,55,29.40
2015,07,19,16,56,29.40
2015,07,19,16,57,29.40
2015,07,19,16,58,29.40
2015,07,19,16,59,29.50
2015,07,19,17,00,29.60
2015,07,19,17,01,29.60
2015,07,19,17,02,29.60
2015,07,19,17,03,29.60
2015,07,19,17,04,29.60
2015,07,19,17,05,29.50
2015,07,19,17,06,29.50
2015,07,19,17,07,29.50
2015,07,19,17,08,29.50
2015,07,19,17,09,29.40
2015,07,19,17,10,29.20
2015,07,19,17,11,29.20
2015,07,19,17,12,29.10
2015,07,19,17,13,29.00
2015,07,19,17,14,28.90
2015,07,19,17,15,29.00
2015,07,19,17,16,29.10
2015,07,19,17,17,29.10
2015,07,19,17,18,29.10
2015,07,19,17,19,29.10